Taganrog Yuzhny Airport

Jump to: basic info | weather | comments

Related pages: nearby airports | nearby navaids | notams | map

Basic information (top)

Codes: TGK URRT
Location: lon 47.200001, lat 38.849998, elev 118 ft / 36 m msl
Status: medium_airport

Weather (top)

Current conditions for Rostov-na-Donu Airport 40nm (73km) E (rec'd 2014/07/31 07:00Z):

URRR 310700Z 09007G12MPS CAVOK 28/09 Q1015 04CLRD70 NOSIG

Airport forecast for Rostov-na-Donu Airport 40nm (73km) E (rec'd 2014/07/31 06:21Z):

TAF URRR 310500Z 3106/0106 07007G12MPS 9999 SCT030 530005 T32/3111Z 
      TEMPO 3109/3115 09011G16MPS

Latest comments (top)

dgs: gsdg [read]

More... (top)

See also NOTAMs and nearby airports and navaids, or visit the Taganrog Yuzhny Airport page at the main OurAirports website..